STARLINK-3154 (49417 NORAD) Tracking and Keplerian Element Data

This shows tracking and keplerian element data for the satellite.

Feedback or suggestion? Click here.




ElementValue
Catalog49417
NameSTARLINK-3154
Epoch Orbit1129
Epoch Day16.15374225
Epoch Year2022
RAAN179.0848
Inclination53.2136
Eccentricity8.88E-05
Argument of Perigee39.2011
Mean Anonmoly320.9065
Mean Motion15.53845645
Decay Rate-0.00291857
L11 49417U 21104K 22016.15374225 -.00291857 00000+0 -46203-2 0 9993
L22 49417 53.2136 179.0848 0000888 39.2011 320.9065 15.53845645 11298

Live tracking and technical data element details for STARLINK-3154 (NORAD 49417). STARLINK-3154 can be tracked NOW for your location showing map with azimuth and elevation plus other details from your city location.

Track the satellite on the map from your city or location and see movement details for azimuth, elevation, latitude, longitude, range, height, and movement on the map or in text.







IsCatalogInMostPopularTable: catalog: 49417, numindb: 4
Update: records affected: 1



GetName: 49417 STARLINK-3154

Hit Count: updated at: Thu, 20 Jan 2022 16:58:05 GMT